Regional Weather Roundup
Issued by NWS

Home | Current Version | Previous Version | Text Only | Print | Product List | Glossary On
Versions: 1 2 3 4 5 6 7 8 9 10 11 12 13 14 15 16 17 18 19 20 21 22 23 24 25 26 27 28 29 30 31 32 33 34 35 36 37 38 39 40 41 42 43 44 45 46 47 48 49 50
000
ASUS43 KOAX 251710
RWRNE

WEATHER ROUNDUP FOR NEBRASKA
NATIONAL WEATHER SERVICE OMAHA NE
1200 PM CDT THU AUG 25 2016

NOTES: SATELLITE DATA IS BEING USED TO AUGMENT CLOUD COVER ABOVE
       12000 FEET.
       "FAIR" INDICATES FEW OR NO CLOUDS BELOW 12,000 FEET WITH NO
       SIGNIFICANT WEATHER AND/OR OBSTRUCTIONS TO VISIBILITY.

  * THESE STATIONS DO NOT REPORT WEATHER SUCH AS RAIN...SNOW OR FOG.

NEZ001>004-019>022-054>056-251800-
NEBRASKA PANHANDLE

CITY           SKY/WX    TMP DP  RH WIND       PRES   REMARKS
SCOTTSBLUFF    SUNNY     63  45  51 NE10      30.31F
ALLIANCE       PTSUNNY   59  44  57 N13       30.31F
CHADRON        CLOUDY    56  47  71 SE5       30.31F
KIMBALL        MOSUNNY   62  49  62 E10       30.32F
SIDNEY         SUNNY     65  46  50 NE13      30.31S
$$

NEZ057>060-069>072-079>082-251800-
SOUTHWEST NEBRASKA

CITY           SKY/WX    TMP DP  RH WIND       PRES   REMARKS
NORTH PLATTE   SUNNY     72  49  44 NE10      30.25S
IMPERIAL       SUNNY     70  46  42 E8        30.25F
LEXINGTON      CLOUDY    70  52  52 NE10      30.23F
MCCOOK         MOSUNNY   72  49  44 E8G16     30.23S
OGALLALA       SUNNY     71  42  34 NE8       30.27S
$$

NEZ005>010-023>029-035>040-094-251800-
NORTH CENTRAL NEBRASKA

CITY           SKY/WX    TMP DP  RH WIND       PRES   REMARKS
VALENTINE      SUNNY     66  45  46 NW14      30.28R
AINSWORTH      SUNNY     64  50  59 N12       30.27R
BROKEN BOW     SUNNY     67  49  52 NE7       30.24F
O`NEILL        PTSUNNY   66  48  50 N8        30.23F
ORD            SUNNY     71  49  45 N8        30.21F
THEDFORD       SUNNY     68  47  47 N10       30.28S
$$

NEZ041-046>049-061>064-073>077-083>087-251800-
SOUTH CENTRAL NEBRASKA

CITY           SKY/WX    TMP DP  RH WIND       PRES   REMARKS
GRAND ISLAND   MOSUNNY   71  54  54 N12       30.21S
AURORA         PTSUNNY   70  57  61 N8        30.20S
HASTINGS       PTSUNNY   70  55  59 N7        30.21S
HEBRON         CLOUDY    67  59  76 NE3       30.17F
HOLDREGE       MOSUNNY   69  54  59 N8        30.21F
KEARNEY *      MOSUNNY   70  55  60 N10       30.21S
YORK           CLOUDY    68  57  68 N5        30.20R
$$

NEZ011>018-030>034-042>045-251800-
NORTHEAST NEBRASKA

CITY           SKY/WX    TMP DP  RH WIND       PRES   REMARKS
NORFOLK        MOSUNNY   68  54  60 N8        30.19S
ALBION         MOSUNNY   68  53  58 N9        30.21S
BLAIR          CLOUDY    68  60  75 NW3       30.15R
FREMONT        CLOUDY    67  60  77 NW8       30.17S
TEKAMAH        CLOUDY    68  60  75 N8        30.16R
WAYNE          MOSUNNY   66  58  74 N8        30.20R
$$

NEZ050>053-065>068-078-088>093-251800-
SOUTHEAST NEBRASKA

CITY           SKY/WX    TMP DP  RH WIND       PRES   REMARKS
LINCOLN        MOSUNNY   68  60  75 N10       30.16S
OMAHA EPPLEY   CLOUDY    68  62  81 N5        30.14R
BEATRICE       CLOUDY    67  60  77 NW3       30.16R
FALLS CITY     CLOUDY    68  62  81 E6        30.11R
NEBRASKA CITY  CLOUDY    65  64  95 CALM      30.13R
PLATTSMOUTH    CLOUDY    66  61  83 N3        30.14R
$$

NEZ044-045-051>053-067-251800-
OMAHA AREA

CITY           SKY/WX    TMP DP  RH WIND       PRES   REMARKS
OMAHA EPPLEY   CLOUDY    68  62  81 N5        30.14R
BLAIR          CLOUDY    68  60  75 NW3       30.15R
FREMONT        CLOUDY    67  60  77 NW8       30.17S
MILLARD        PTSUNNY   70  59  68 NW5       30.15R
OFFUTT AFB     CLOUDY    67  61  79 N2        30.13R
PLATTSMOUTH    CLOUDY    66  61  83 N3        30.14R
WAHOO          FAIR      68  60  75 N3        30.16S
$$




USA.gov is the U.S. government's official web portal to all federal, state and local government web resources and services.